Regional Weather Roundup
Issued by NWS

Home | Current Version | Previous Version | Text Only | Print | Product List | Glossary Off
Versions: 1 2 3 4 5 6 7 8 9 10 11 12 13 14 15 16 17 18 19 20 21 22 23 24 25 26 27 28 29 30 31 32 33 34 35 36 37 38 39 40 41 42 43 44 45 46 47 48 49 50

000
ASUS43 KIND 221159
RWRIN

WEATHER ROUNDUP FOR INDIANA
NATIONAL WEATHER SERVICE INDIANAPOLIS IN
800 AM EDT MON SEP 22 2014

NOTE: "FAIR" INDICATES FEW OR NO CLOUDS BELOW 12,000 FEET WITH NO
SIGNIFICANT WEATHER AND/OR OBSTRUCTIONS TO VISIBILITY.

* - STATION DOES NOT REPORT WEATHER SUCH AS PRECIPITATION OR FOG.

+ - STATION NOT QUALITY CONTROLLED BY THE NATIONAL WEATHER SERVICE.
    USE DATA WITH CAUTION...ESPECIALLY DEWPOINT AND RELATIVE
    HUMIDITY OBSERVATIONS.

INZ001>003-010>013-019-020-221300-
NORTHWEST INDIANA

CITY           SKY/WX    TMP DP  RH WIND       PRES   REMARKS
GARY /AIRPORT/ MOCLDY    54  43  66 N7        30.23R
VALPARAISO     CLOUDY    48  45  89 E5        30.23R
6HR MIN TEMP:  48; 6HR MAX TEMP:  52;


$$

LMZ046-743>745-221300-
SOUTHERN LAKE MICHIGAN

STATION/POSITION TIME  TEMP WIND        PRES
                       AIR  DIR/SP/G
                 (UTC) (F)  (DEG/KT/KT) (MB)
MICHIGAN CITY    1100   54  360/ 17/ 20   N/A

$$

INZ004-005-014>016-021>024-221300-
NORTH CENTRAL INDIANA

CITY           SKY/WX    TMP DP  RH WIND       PRES   REMARKS
ELKHART        PTCLDY    41  37  87 CALM      30.22F
GOSHEN         PTCLDY   N/A N/A N/A N6        30.21R
SOUTH BEND     PTCLDY    41  37  86 N3        30.23R
6HR MIN TEMP:  40; 6HR MAX TEMP:  50;

WARSAW +       CLEAR     41  36  81 NE3       30.21R

$$

INZ006>009-017-018-025>027-221300-
NORTHEAST INDIANA

CITY           SKY/WX    TMP DP  RH WIND       PRES   REMARKS
ANGOLA *+        N/A     45  30  57 CALM      30.20R
FORT WAYNE     MOCLDY    47  40  76 N7        30.20R
6HR MIN TEMP:  43; 6HR MAX TEMP:  48;


$$

INZ028-029-035-036-043>045-051>053-221300-
WEST CENTRAL INDIANA

CITY           SKY/WX    TMP DP  RH WIND       PRES   REMARKS
GREENCASTLE +  CLEAR     45  45 100 CALM      30.22R
LAFAYETTE      CLEAR     43  43 100 CALM      30.22R
6HR MIN TEMP:  42; 6HR MAX TEMP:  50;

TERRE HAUTE    PTCLDY    48  46  93 N5        30.22R
6HR MIN TEMP:  46; 6HR MAX TEMP:  54;


$$

INZ030>032-037>040-046>048-054>057-064-065-221300-
CENTRAL INDIANA

CITY           SKY/WX    TMP DP  RH WIND       PRES   REMARKS
COLUMBUS       CLEAR     46  45  93 N5        30.22R
INDIANAPOLIS   PTCLDY    48  44  86 N9        30.20R
6HR MIN TEMP:  47; 6HR MAX TEMP:  55;

-EAGLE CREEK   PTCLDY    47  43  86 N5        30.21R
6HR MIN TEMP:  47; 6HR MAX TEMP:  54;

KOKOMO *+      CLEAR     43  37  81 CALM      30.22R
MT COMFORT *+  CLEAR     43  43 100 CALM      30.21R
SHELBYVILLE    PTCLDY    47  43  86 N3        30.20R
6HR MIN TEMP:  46; 6HR MAX TEMP:  53;


$$

INZ033-034-041-042-049-050-058-059-221300-
EAST CENTRAL INDIANA

CITY           SKY/WX    TMP DP  RH WIND       PRES   REMARKS
MUNCIE         CLEAR     42  38  85 N6        30.20R
6HR MIN TEMP:  42; 6HR MAX TEMP:  48;


$$

INZ060-061-067>069-081>083-085>088-221300-
SOUTHWEST INDIANA

CITY           SKY/WX    TMP DP  RH WIND       PRES   REMARKS
EVANSVILLE     CLEAR     53  50  89 N3        30.22R
6HR MIN TEMP:  53; 6HR MAX TEMP:  58;


$$

INZ062-063-066-070>080-084-089>092-221300-
SOUTH CENTRAL AND SOUTHEAST INDIANA

CITY           SKY/WX    TMP DP  RH WIND       PRES   REMARKS
BLOOMINGTON    CLEAR     48  45  89 CALM      30.21R
6HR MIN TEMP:  45; 6HR MAX TEMP:  56;


$$



USA.gov is the U.S. government's official web portal to all federal, state and local government web resources and services.